Flag for Germany Weather past 2 weeks in Würzburg, Bavaria, Germany

Now
45 °F

Overcast.


Feels Like: 42 °F
Forecast: 36 / 53 °F
Wind: 7 mph from Northwest

Location: Wuerzburg

Current Time: Mar 27, 2015 at 2:19:35 PM

Latest Report: Mar 27, 2015 at 2:00 PM


Visibility: 25 mi

Pressure: 30.09 "Hg

Humidity: 63%

Dew point: 33 °F

Location of WürzburgLocation

Historic Weather in Würzburg — Graph

°F

Würzburg temperature yesterday

Maximum temperature yesterday: 47 °F (at 12:00 AM)
Minimum temperature yesterday: 40 °F (at 11:00 PM)
Average temperature yesterday: 44 °F

Past Weeks' High & Low Weather Summary

 TemperatureHumidityPressure
High66 °F (Mar 25, 4:00 PM)100% (Mar 24, 7:00 AM)30.43 "Hg (Mar 24, 7:00 AM)
Low29 °F (Mar 13, 7:00 AM)26% (Mar 20, 3:00 PM)29.57 "Hg (Mar 25, 5:00 PM)
Average43 °F71%30.12 "Hg
* Reported Mar 12 1:00 PM — Mar 27 1:00 PM, Würzburg, Weather by CustomWeather, © 2015

Note: Actual official high and low records may vary slightly from our data, if they occured in-between our weather recording intervals... More about our weather records

Advertising

Würzburg weather history for previous 24 hours

 ConditionsComfort  
Time TempWeatherWind HumidityBarometerVisibility
1:00 PM
Fri, Mar 27
48 °FOvercast.8 mph56%30.07 "Hg28 mi
12:00 PM47 °FSprinkles. Overcast.9 mph58%30.06 "Hg22 mi
11:00 AM47 °FPartly sunny.8 mph62%30.05 "Hg25 mi
10:00 AM44 °FPartly sunny.8 mph69%30.05 "Hg17 mi
9:00 AM43 °FOvercast.7 mph73%30.03 "Hg19 mi
8:00 AM42 °FPartly sunny.7 mph79%30.01 "Hg22 mi
7:00 AM42 °FOvercast.6 mph85%29.98 "Hg11 mi
6:00 AM41 °FOvercast.6 mph86%29.96 "Hg6 mi
5:00 AM41 °FOvercast.5 mph86%29.93 "Hg7 mi
4:00 AM41 °FOvercast.6 mph87%29.92 "Hg7 mi
3:00 AM41 °FLight rain. Overcast.6 mph87%29.91 "Hg9 mi
2:00 AM41 °FOvercast.3 mph88%29.90 "Hg10 mi
1:00 AM40 °FLight rain. Overcast.3 mph88%29.89 "Hg6 mi
12:00 AM40 °FLight rain. Overcast.3 mph90%29.89 "Hg5 mi
11:00 PM
Thu, Mar 26
40 °FLight rain. Overcast.3 mph91%29.89 "Hg5 mi
10:00 PM41 °FLight rain. Overcast.6 mph85%29.88 "Hg6 mi
9:00 PM45 °FLight rain. Overcast.9 mph65%29.86 "Hg9 mi
8:00 PM44 °FOvercast.5 mph68%29.84 "Hg9 mi
7:00 PM45 °FOvercast.5 mph70%29.83 "Hg8 mi
6:00 PM45 °FOvercast.6 mph69%29.82 "Hg8 mi
5:00 PM45 °FOvercast.5 mph71%29.82 "Hg7 mi
4:00 PM46 °FOvercast.3 mph69%29.82 "Hg7 mi
3:00 PM46 °FOvercast.5 mph70%29.82 "Hg6 mi
2:00 PM46 °FOvercast.5 mph70%29.83 "Hg4 mi
Weather by CustomWeather, © 2015

See weather overviewHow to use our weather pages